{"data":{"norad_id":43258,"intl_designator":"2018-030K","name":"IRIDIUM 143","alt_names":[],"object_type":"PAYLOAD","status":"ACTIVE","operator":null,"country":"US","launch_date":"2018-03-30","launch_site_code":"AFWTR","launch_vehicle":null,"mission":null,"orbit_class":"UNKNOWN","rcs_meters":null,"size_class":null,"mass_kg":null,"dimensions":null,"purposes":["comms"],"wikipedia_slug":null,"has_3d_model":false,"image_url":null,"decayed_at":null,"tle_current":{"epoch":"2026-09-20T00:20:35.189088Z","epoch_age_seconds":57434,"freshness":"FRESH","line1":"1 43258U 18030K   26263.01429617  .00000042  00000+0  77612-5 0  9996","line2":"2 43258  86.3920 250.8948 0002206  85.2752 274.8695 14.34217343443685","mean_motion":14.34217343,"eccentricity":0.0002206,"inclination_deg":86.392,"raan_deg":250.8948,"arg_perigee_deg":85.2752,"mean_anomaly_deg":274.8695,"bstar":7.7612e-6,"rev_number":44368,"period_min":100.40319251669,"perigee_km":776.08993743375,"apogee_km":779.24707882394,"semimajor_km":7155.8055081288,"source":"CELESTRAK","updated_at":"2026-09-20T09:00:36.330437Z"}}}